User: anonymous   Login
Location: B�di�
(14.6834°N, 3.1047°W)
Time: 18:10:00
(UTC+00:00)
Language:

H-II Stage 2 - Orbit

View from above orbital plane
View from above orbital plane
View from above satellite
View from above satellite

Ground track
Ground track

The orbit data is extracted from the following two-line orbital elements,

1 22980U 94007C   20099.62611925 +.00001003 +00000-0 +22786-3 0  9995
2 22980 028.4094 206.2637 6782284 241.3449 035.8345 02.92974008258947
Epoch (UTC): 08 April 2020 15:01:36
Eccentricity: 0.6782284
inclination: 28.4094°
perigee height: 260 km
apogee height: 28245 km
right ascension of ascending node: 206.2637°
argument of perigee: 241.3449°
revolutions per day: 2.92974008
mean anomaly at epoch: 35.8345°
orbit number at epoch: 25894

The dashed part of the orbit path shows where the satellite is in the earth's shadow,  

DLR